SCP
0 0 0 0 0 0 0 0 0 0 0 0 0 0 0 0 0 0 0 0 0 0 0 0 0 0 0 0 0 0 0 0 0 -0 -0 -0 0 0 0 0 0 0 0
0 0 0 0 0 0 0 0 0 0 0 0 0 0 0 0 0 0 0 0 0 0 0 0 0 0 0 0 0 0 -0 -0 -0 -0 -0 -0 -0 0 0 0 0 0 0
0 0 0 0 0 0 0 0 0 0 0 0 0 0 0 0 0 0 0 0 0 0 0 0 0 0 0 -0 -0 -0 -0 -0 -0 -0 -0 -0 -0 -0 0 0 0 0 0
0 0 0 0 0 0 0 -0 -0 -0 -0 -0 0 0 0 0 0 0 0 0 0 0 0 0 0 0 -0 -0 -0 -0 -0 -0 0 -0 -0 -0 -0 -0 0 0 0 0 0
0 0 0 0 0 -0 -0 -0 -0 -0 -0 -0 -0 0 0 0 0 0 0 0 0 0 0 0 0 -0 -0 -0 -0 -0 0 0 0 0 0 -0 0 0 0 0 0 0 0
0 0 0 0 -0 -0 -0 -0 -0 -0 -0 -0 -0 -0 0 0 0 0 0 0 -0 -0 -0 -0 -0 -0 -0 -0 -0 0 0 0 0 0 0 0 0 0 0 0 0 0 0
0 0 0 -0 -0 -0 -0 -0 -0 -0 -0 -0 -0 -0 -0 0 0 0 -0 -0 -0 -0 -0 -0 -0 -0 -0 -0 0 0 0 0 0 0 0 0 0 0 0 0 0 0 0
1 0 0 -0 -0 -0 -0 -0 -0 -0 -0 -0 -0 -0 -0 -0 -0 -0 -0 -0 -0 -0 -0 -0 -0 -0 -0 -0 0 0 0 0 0 0 0 0 0 0 0 0 0 0 0
1 0 0 0 -0 -0 -0 -0 -0 -0 -0 -0 -0 -0 -0 -0 -0 -0 -0 -0 -0 -0 -0 -0 -0 -0 -0 -0 0 0 0 0 0 0 0 0 0 0 0 0 0 0 0
1 1 0 0 0 -0 -0 -0 -0 -0 -0 -0 -0 -0 -0 -0 -0 -0 -0 -0 -0 -0 -0 -0 -0 -0 -0 -0 -0 0 0 0 0 0 0 0 0 0 0 0 0 0 0
0 0 0 0 0 0 -0 -0 -0 -0 -0 -0 -0 -0 -0 -0 -0 -0 -0 -0 -0 0 0 0 0 0 0 0 0 0 0 0 0 0 0 0 0 0 0 0 0 0 0
0 0 0 0 0 0 0 0 -0 -0 -0 -0 0 0 0 0 0 0 0 0 0 0 0 0 0 0 0 0 0 0 0 0 0 0 0 0 0 0 0 0 0 0 0
1 0 0 0 0 0 0 0 0 -0 -0 0 0 0 0 0 0 0 0 0 0 0 0 0 0 0 0 0 0 0 0 0 0 0 0 0 0 0 0 0 0 0 0
1 1 0 0 0 0 0 0 0 0 0 0 0 0 0 0 0 0 0 0 0 0 0 0 0 0 0 0 0 0 0 0 0 0 0 0 0 0 0 0 0 0 0
1 1 1 1 0 0 0 0 0 0 0 0 0 0 0 0 0 0 0 0 0 0 0 0 0 0 0 0 0 0 0 0 0 0 0 0 0 0 0 0 0 0 0
1 1 1 1 1 0 0 0 0 0 0 0 0 0 0 0 0 0 0 0 0 0 0 0 0 0 0 0 0 0 0 0 0 0 0 0 0 0 0 0 0 0 0
1 1 1 1 1 1 0 0 0 0 0 0 0 0 0 0 0 0 0 0 0 0 0 0 0 0 0 0 0 0 0 0 0 0 0 0 0 0 0 0 0 0 0
1 1 1 1 1 1 1 0 0 0 0 0 0 0 0 0 0 0 0 0 0 0 0 0 0 0 0 0 0 0 0 0 0 0 0 0 0 0 0 0 0 0 0
1 1 1 1 1 1 1 1 0 0 0 0 0 0 0 0 0 0 0 0 0 0 0 0 0 0 0 0 0 0 0 0 0 0 0 0 0 0 0 0 0 0 0
1 1 1 1 1 1 1 1 0 0 0 0 0 0 0 0 0 0 0 0 0 0 0 0 0 0 0 0 0 0 0 0 0 0 0 0 0 0 0 0 0 0 0
1 1 1 1 1 1 1 1 1 0 0 0 0 0 0 0 0 0 0 0 0 0 0 0 0 0 0 0 0 0 0 0 0 0 0 0 0 0 0 0 0 0 0
0 0 1 1 1 1 1 1 1 0 0 0 0 0 0 0 0 0 0 0 0 0 0 0 0 0 0 0 0 0 0 0 0 0 0 0 0 0 0 0 0 0 0
0 0 0 1 1 1 1 1 1 0 0 0 0 0 0 0 0 0 0 0 0 0 0 0 0 0 0 0 0 0 0 0 0 0 0 0 0 0 0 0 0 0 0
0 0 0 0 1 1 1 1 1 1 0 0 0 0 0 0 0 0 0 0 0 0 0 0 0 0 0 0 0 0 0 0 0 0 0 0 0 0 0 0 0 0 0
0 0 0 0 0 1 1 1 1 1 0 0 0 0 0 0 0 0 0 0 0 0 0 0 0 0 0 0 0 0 0 0 0 0 0 0 0 0 0 0 0 0 0
0 0 0 0 0 0 1 1 1 1 0 0 0 0 0 0 0 0 0 0 0 0 0 0 0 0 0 0 0 0 0 0 0 0 0 0 0 0 0 0 0 0 0
Wind_Speed
10 11 18 18 17 16 15 15 14 13 13 14 14 14 15 15 17 18 19 19 19 18 18 18 18 17 17 17 17 16 16 15 15 15 14 14 15 15 14 13 11 7 13
12 14 18 18 18 16 15 15 14 13 13 14 14 15 15 16 17 18 19 19 19 18 18 17 17 16 16 16 15 14 13 12 11 11 10 10 12 14 14 13 12 8 13
16 14 16 17 17 16 16 15 14 14 14 15 15 15 16 16 17 18 18 18 18 18 17 17 16 15 14 13 12 11 10 9 8 7 8 5 7 12 13 12 12 13 13
15 13 13 17 17 17 16 15 15 15 15 15 15 15 16 16 17 17 18 18 17 17 16 15 14 13 13 12 11 10 10 9 9 8 5 4 5 11 12 12 12 12 12
12 11 14 17 17 17 16 15 15 15 15 15 15 15 15 16 16 17 17 16 16 15 14 14 13 12 11 10 10 11 11 12 12 8 5 4 4 10 12 12 12 12 12
10 9 13 17 17 16 15 15 15 15 16 16 16 15 15 15 16 16 15 15 14 14 13 12 12 10 9 9 10 11 11 11 9 5 4 4 3 9 10 11 11 11 10
9 9 12 17 17 16 15 14 15 15 16 15 16 15 15 15 15 15 14 13 13 12 12 11 10 9 8 8 9 10 10 8 5 4 3 3 4 9 9 9 9 9 9
11 10 11 16 16 15 14 14 14 15 16 15 15 15 15 15 14 13 13 12 12 11 11 10 9 7 6 6 6 7 7 6 4 3 3 2 5 7 8 7 7 7 8
11 9 8 10 11 13 12 12 13 14 14 15 15 14 14 13 13 13 11 11 10 10 9 8 7 5 4 3 4 5 5 5 3 2 2 2 4 6 5 5 5 5 6
11 9 7 7 8 7 8 11 12 12 13 13 13 12 11 11 11 11 9 9 9 8 7 6 5 4 2 1 2 4 4 3 1 1 2 3 5 4 4 3 3 3 4
12 10 9 8 7 7 7 9 10 11 12 12 10 12 9 5 6 6 7 8 7 7 6 5 4 3 1 2 4 4 3 1 0 1 2 5 6 5 4 3 2 1 1
13 11 10 9 8 7 7 6 5 5 7 6 6 7 5 4 4 5 7 8 7 6 5 5 4 3 2 2 3 3 1 1 1 2 3 7 7 6 5 4 4 3 2
12 12 11 10 9 8 5 5 3 3 4 5 6 6 4 4 3 3 3 3 4 4 2 3 2 2 2 2 2 2 2 2 2 2 3 8 9 7 6 6 6 6 5
10 11 11 11 10 8 7 6 5 4 4 4 5 6 4 3 3 3 3 3 3 2 3 2 2 3 4 4 4 4 3 2 2 2 4 9 10 10 9 8 8 8 8
12 10 11 11 11 10 8 6 6 5 5 5 5 5 6 5 5 4 3 3 3 3 3 3 3 3 4 4 4 4 4 4 4 4 3 8 10 11 11 10 10 10 10
12 12 10 11 11 10 8 6 6 5 5 5 5 6 7 5 5 5 4 4 3 3 4 4 4 3 3 2 3 3 3 3 4 4 4 5 10 11 12 13 12 11 11
11 12 11 11 10 10 9 8 6 5 5 5 5 6 7 6 6 5 4 3 3 3 4 3 3 2 1 2 2 3 3 3 4 4 4 4 4 9 12 13 13 12 11
10 11 12 11 11 10 8 7 5 5 5 5 5 5 6 6 6 4 4 3 3 3 2 2 2 1 1 2 2 3 3 3 5 5 4 4 4 4 7 11 12 11 10
10 11 11 10 11 11 9 7 6 5 5 4 4 4 5 6 6 4 3 3 3 2 1 2 1 1 2 2 3 3 3 4 5 5 5 5 4 4 4 6 8 8 7
9 9 10 10 10 9 7 5 4 4 4 3 4 4 5 4 5 4 3 3 2 2 1 1 1 1 2 2 3 3 4 4 4 5 5 4 3 3 3 2 2 1 2
7 8 9 9 9 8 5 5 5 4 3 3 3 4 5 5 5 4 3 3 2 2 2 1 1 1 1 1 1 3 4 4 4 4 3 2 2 2 1 1 1 1 1
8 9 9 9 9 9 6 5 4 4 3 3 3 3 4 4 4 4 4 3 2 1 1 0 1 0 1 0 1 1 3 4 3 2 2 1 1 1 1 2 2 3 3
8 9 8 9 9 8 7 4 3 3 3 2 3 2 3 4 4 4 4 3 2 2 1 1 1 2 1 1 1 2 2 3 3 3 2 2 2 2 2 2 4 4 4
9 7 7 8 7 7 8 8 8 6 5 5 4 3 3 3 4 4 4 3 3 2 2 1 1 2 2 2 1 2 3 3 2 3 3 2 2 3 3 3 4 5 4
7 6 6 6 6 6 7 8 8 5 4 3 4 5 4 3 3 4 4 3 3 2 2 1 1 1 1 2 2 2 2 2 4 3 4 2 2 2 3 3 3 4 4
4 4 4 5 5 5 6 7 8 8 7 7 6 5 4 3 2 3 3 3 3 2 2 1 1 1 1 1 2 2 2 2 2 3 4 3 1 1 3 4 3 3 3
Wind_Direction
152 155 150 146 141 136 130 125 122 119 114 107 101 99 95 96 98 100 102 103 101 98 97 95 94 94 94 93 91 88 84 80 76 72 67 67 72 73 72 68 62 57 64
145 151 149 147 142 137 132 128 126 122 117 111 106 103 100 100 100 100 101 102 100 99 98 97 96 96 95 94 92 89 86 82 78 73 64 60 69 71 69 65 63 62 64
144 147 147 146 142 137 134 132 131 126 120 114 110 107 104 104 103 102 102 102 101 100 99 97 97 96 95 92 88 83 80 80 86 80 66 50 66 72 70 65 63 61 62
144 145 146 145 142 139 137 135 134 130 124 119 114 111 108 106 105 104 104 103 102 101 100 98 97 96 94 89 81 75 73 83 92 92 71 52 57 72 69 66 64 62 61
141 143 147 145 143 141 139 139 137 133 128 123 119 116 113 110 108 107 107 106 105 104 103 101 98 95 90 82 74 69 74 92 96 92 80 64 57 73 69 64 63 63 62
136 140 147 145 144 142 141 141 140 137 132 128 125 121 117 114 112 111 110 109 107 107 106 104 100 95 87 78 70 67 78 97 98 92 84 73 68 77 72 67 64 62 61
138 142 147 146 146 144 143 143 142 140 136 134 130 126 123 119 117 117 116 114 113 111 110 108 104 98 88 77 68 66 72 85 95 102 100 91 86 85 78 71 65 61 59
143 145 149 148 145 143 143 143 143 142 140 138 135 131 130 127 125 124 123 122 120 118 116 113 110 103 92 77 65 61 63 73 93 113 115 113 107 94 84 77 70 64 60
144 144 144 146 144 143 143 144 144 141 142 142 140 137 135 134 134 133 132 130 128 126 124 123 120 115 103 76 50 43 48 69 104 153 160 160 131 113 100 90 78 69 63
146 146 141 140 139 139 141 143 141 141 141 141 139 138 139 140 140 139 138 138 137 136 137 138 138 137 126 14 357 7 24 60 82 187 185 190 166 145 132 120 101 81 70
153 152 148 144 143 143 145 146 140 142 143 142 142 145 140 138 139 141 148 149 151 154 159 165 171 183 226 308 317 334 5 35 21 210 209 209 190 179 173 170 164 149 107
162 161 157 154 153 153 153 144 143 144 148 148 150 149 145 148 158 161 168 168 170 175 186 199 212 233 261 300 306 317 321 287 245 227 225 221 211 207 205 204 209 215 216
167 166 166 162 161 161 151 156 156 151 156 159 161 160 158 160 166 166 167 178 183 190 207 238 256 264 260 265 275 274 265 262 238 238 235 226 222 223 225 224 226 230 232
169 174 170 168 166 167 162 166 164 163 169 174 176 172 166 166 171 175 183 188 189 195 211 230 239 252 257 253 251 257 259 248 242 238 240 235 232 234 236 236 234 236 239
169 177 174 171 172 171 168 172 171 174 180 184 181 178 172 168 177 183 194 196 200 202 210 223 233 243 253 252 243 239 248 250 248 242 246 242 239 240 242 242 241 240 242
172 174 174 173 175 173 174 175 175 179 180 182 183 181 177 173 176 177 185 196 204 207 211 214 220 228 240 244 251 249 253 261 257 251 246 249 245 244 246 248 249 250 250
176 170 174 173 175 177 178 179 176 180 175 181 185 179 177 175 176 173 174 186 200 202 203 206 220 219 234 247 264 272 269 271 275 270 261 248 250 248 248 251 254 254 257
173 171 175 177 176 178 180 178 174 177 176 182 183 178 178 178 175 170 173 186 191 182 183 192 202 217 244 255 269 276 276 278 277 272 266 257 251 251 249 249 254 257 260
177 175 176 176 175 178 181 177 173 172 173 176 176 176 179 177 172 167 175 185 176 165 180 197 196 199 240 264 269 272 274 272 272 273 271 267 256 249 244 248 248 254 266
182 178 179 177 178 176 174 168 165 168 172 167 167 175 173 170 168 164 168 175 164 160 188 206 226 232 234 256 279 283 276 272 271 269 270 272 266 255 242 236 236 251 259
183 180 181 179 179 173 170 171 170 177 173 168 167 170 170 164 161 158 160 163 160 168 193 210 220 253 264 264 308 306 296 282 277 276 276 273 276 267 232 178 142 121 79
188 187 187 186 181 180 181 174 168 159 158 161 155 153 159 156 155 154 154 153 151 156 166 177 168 216 269 191 192 298 316 327 321 321 330 324 317 6 71 89 96 95 84
195 192 192 189 182 181 172 152 126 107 100 127 156 155 153 145 137 133 142 143 142 146 165 188 181 188 232 264 200 206 239 269 307 313 345 17 22 39 54 71 81 82 79
202 195 191 187 183 179 170 169 166 170 179 183 171 160 146 137 134 132 131 137 141 140 153 182 174 183 190 231 255 232 222 215 246 297 317 349 27 41 45 61 69 68 65
195 187 185 176 177 177 177 178 176 178 172 146 140 145 143 133 134 129 128 130 130 128 133 140 158 172 197 216 222 236 248 240 225 235 273 301 0 35 43 48 58 61 56
174 167 166 165 172 173 175 179 182 177 163 155 159 162 156 144 132 129 127 125 125 123 127 135 159 168 205 232 234 225 223 230 227 222 242 250 251 78 49 40 47 56 51